STARLINK-1012, 44718

Orbit data source: Space-Track

STARLINK-1012, 44718 is a payload satellite owned by SpaceX/Seattle (US) in LEO that was launched on Mon, 11 Nov 2019 UTC via an FALCON 9 launch vehicle from the Air Force Eastern Test Range (AFETR). Payload-class satellites include a variety of spacecraft equipped with specific instruments for various scientific and technological missions. These include communications satellites like Starlink; space stations such as the ISS; scientific satellites like the Hubble; Earth observation satellites from companies like Planet Labs, Umbra, and HawkEye 360; GPS; miniature CubeSats for education and research; and military/defense satellites.

Loading next visibility...
Identifier
44718, 2019-074F
Orbit
LEO
Country
Flag of USUS
Related business
Manufacturer
SpaceX/Seattle
Mission
Operational Commercial Communications
Bus & Motor
STARLINK, Unknown motor
Mass
260 kg wet, ~248 kg dry
Launch date (UTC)
2019-11-11 (6 years ago)
Launch vehicle
FALCON 9
Launch site
Air Force Eastern Test Range (AFETR)
Object type
Payload
Rocket body
Debris
Shape & HBR
Box + 1 Pan, 10.1 m
Radar Cross Section
13.562 m², Large (>1 m²)

Expand to show TLE details & history
Last TLE update: 18 hours ago

TLE from 18 hours ago
0 STARLINK-1012
1 44718U 19074F   25341.12890085  .00000765  00000-0  70243-4 0  9991
2 44718  53.0540 242.1410 0001455  81.9528 278.1626 15.06401219334792
Epoch: 2025-12-07T03:05Z
TLE epoch observation values (Epoch: 2025-12-07T03:05:37.033Z)
Latitude
-0.00002°
Longitude
119.58995°
Altitude
547.944 km
Speed
7.589 km/s
True Right ascension
16h 08m 33s
True Declination
0° 00' 00"
Sunlit
Object was in daylight at epoch
Visualization orbit readout
Latitude
Unknown
Longitude
Unknown
Altitude
Unknown
Speed
Unknown
Apparent Right ascension
Unknown
Apparent Declination
Unknown
Sunlit
N/A
Visualization observer readout
Local Sidereal Time
19:34:37
Azimuth
Unknown
Elevation
Unknown
Doppler factor
Unknown
Orbital elements
Apogee altitude
548.486 km
Perigee altitude
546.471 km
Semi-major axis
6,925.616 km
Eccentricity
0.00015
Inclination
53.054°
RAAN
242.141°
Arg. of periapsis
81.9528°
True anomaly
278.1461°
Mean anomaly
278.1626°
Eccentric anomaly
278.15435°
Mean motion
3.76579 °/min
Orbital period
95.6 mins
BSTAR
0.000070243
Loading maneuver chart data...
Computing Atmospheric mass density...

Documentation

Showing up to 5 results
|